STARLINK-4509 (53404 NORAD) Tracking and Keplerian Element Data

This shows tracking and keplerian element data for the satellite.

Feedback or suggestion? Click here.




ElementValue
Catalog53404
NameSTARLINK-4509
Epoch Orbit1631
Epoch Day325.14495483
Epoch Year2022
RAAN121.5318
Inclination53.2145
Eccentricity0.0001929
Argument of Perigee49.6851
Mean Anonmoly310.4309
Mean Motion15.08838725
Decay Rate-3.83E-06
L11 53404U 22097S 22325.14495483 -.00000383 00000+0 -59522-5 0 9991
L22 53404 53.2145 121.5318 0001929 49.6851 310.4309 15.08838725 16311



Live tracking and technical data element details for STARLINK-4509 (NORAD 53404). STARLINK-4509 can be tracked NOW for your location showing map with azimuth and elevation plus other details from your city location.







IsCatalogInMostPopularTable: catalog: 53404, numindb: 4
Update: records affected: 1



GetName: 53404 STARLINK-4509

Hit Count: updated at: Thu, 08 Dec 2022 19:28:24 GMT